Vertical_Velocity
-1 -0 -1 0 1 0 -1 -4 -0 -1 -2 -1 -2 -2 -1 -1 -3 9 2 -1 -3 -2 -2 -1 12 17 3 -4 -5 7 5 -0 -8 4 -16 -1 2 -0 -2 -2 5 1 -3 -3 -2
-1 -0 -1 -0 0 -0 0 -1 0 -1 -1 -2 -1 0 -1 -1 -6 22 -2 1 1 -1 -5 -2 -4 -9 -2 2 4 3 4 -5 -3 -2 -2 1 -2 -1 3 2 1 1 6 4 1
1 1 -1 0 -1 -2 -2 -0 -1 -2 -1 -1 -1 0 -1 -1 -5 10 -0 -2 0 0 -3 -3 -4 6 0 2 -4 -4 -2 -3 -10 6 2 3 0 -3 1 1 5 -5 3 1 4
-1 -1 -2 -3 -1 -1 -2 -2 -1 0 -0 -0 -1 -2 -5 2 6 -5 -1 -3 1 -6 2 -6 -5 3 2 3 2 9 -2 2 -12 -1 -5 -0 6 1 2 -3 3 -1 -6 -4 1
-0 -1 -1 0 -2 -3 -1 1 -2 -0 -0 -2 -1 -4 -8 14 -4 -0 -3 -1 -4 0 3 -1 -0 2 1 1 0 3 -3 -1 3 -4 -7 6 -2 -5 -2 -3 11 -0 -1 3 -1
1 1 -2 -3 -3 -2 -1 -1 -1 -2 -0 -1 -3 -2 -7 -0 -4 -1 -3 -4 0 -2 -2 3 6 -0 2 1 5 2 2 -2 -0 -0 -7 11 -0 -6 2 -10 10 2 -3 -3 1
-0 0 -0 0 -2 -0 -3 -2 -1 -1 -1 -0 -3 -4 -3 -2 -4 -4 4 -2 -2 -2 -4 -1 -2 2 -0 -3 1 -2 3 -1 -2 -4 -3 8 -0 -1 -2 -9 16 1 2 -1 -3
-2 -0 0 -1 0 -2 -2 -2 -3 -1 -0 -1 -1 -1 -1 -4 -4 1 -5 -2 5 -4 -5 1 -1 -2 3 -5 -9 4 6 4 -7 2 -10 8 -8 -0 -9 -16 7 3 -5 3 2
-1 -0 -1 -1 -3 -0 -2 -1 -2 -2 -1 -1 -2 -1 1 -1 0 -1 -4 -4 -5 -3 7 -0 -1 -1 -6 -2 -0 2 -2 1 2 -1 -1 2 -4 1 7 6 5 5 -3 -3 3
-1 -1 -0 -2 -2 -1 -1 -1 -0 -2 -1 -1 -0 1 6 -5 -2 -4 3 -5 -7 -11 4 4 4 2 -3 -2 3 0 -1 -4 1 4 -0 -1 -3 2 1 1 -1 -1 0 -2 -2
0 -1 -2 -2 -1 -2 1 -5 -1 -2 -2 -0 -1 -3 2 -3 -4 0 -4 -0 -1 11 -1 -0 -3 2 3 2 2 3 2 -0 -0 1 3 -2 -1 -2 -1 5 2 6 1 -7 11
0 0 -2 -2 -2 -2 0 -5 -0 0 -7 -2 -1 -4 1 -0 -5 4 -2 -3 1 1 -5 -7 1 2 1 1 3 -0 0 -1 -1 -1 4 -1 -3 -2 0 -1 -8 -5 2 0 -4
-2 -1 0 -3 -2 -2 -2 -2 -0 -1 3 2 -1 -1 -3 2 -1 -3 -5 -2 1 -1 -0 2 4 0 2 -1 -2 1 1 -0 6 -3 -1 2 -3 0 -2 3 8 7 1 6 -4
-0 0 -1 -1 -2 -2 -1 0 0 1 2 3 2 -0 2 -0 0 0 -4 -1 -2 4 1 1 -0 1 -1 0 3 0 2 1 0 -0 1 1 -6 2 -0 1 1 5 1 -0 -2
-2 -1 -4 -1 -2 -1 -0 0 -0 2 -5 -5 3 -2 -2 -2 -1 -1 -3 1 1 0 2 -0 -1 -1 -0 4 2 -2 2 2 1 1 2 -2 -4 -8 -2 1 0 -0 0 -5 -2
-0 -2 0 -1 -2 -2 -1 0 -0 -4 -10 0 -0 -1 -1 2 2 -5 -0 1 -2 2 1 -3 -1 1 2 -2 2 -1 2 1 1 1 -3 2 -6 -9 -0 3 -1 -1 8 1 -2
0 3 -2 0 -0 -4 -1 -2 -5 -3 -5 2 0 -0 1 -1 -2 -1 -1 -0 -2 -6 -3 -5 1 1 1 0 -1 -5 -4 -4 -8 -4 -3 -1 -3 -11 -1 1 2 1 2 2 4
-1 -1 1 -2 1 -0 -3 -0 2 -2 0 2 0 -0 0 1 -0 -2 -0 1 2 -1 1 1 -14 -0 -1 1 3 -1 3 -2 0 0 -4 -1 -2 -12 0 1 -1 -1 -0 -1 1
-6 2 0 3 -5 -0 -4 -0 -4 1 1 0 -3 1 1 1 2 2 1 -0 1 1 1 -1 -6 2 -0 0 -1 -7 -3 3 2 -1 1 -4 -4 -5 1 1 0 -1 -2 -0 -1
-5 4 -1 -2 -3 1 -2 -3 0 1 0 2 1 0 0 -0 0 -2 -1 2 1 -0 0 -0 -3 -1 1 1 0 0 1 -8 -4 -1 -2 -4 -1 -3 1 1 1 1 0 -2 -4
-5 1 2 3 -1 -2 -1 -2 -0 -2 2 2 0 -0 -1 -0 1 -1 -3 2 0 2 0 1 -0 -11 2 -0 0 0 1 0 -1 -1 0 -0 -8 -0 -0 -1 -1 0 0 0 -3
2 1 -0 2 -1 0 0 0 -1 -0 -1 1 -0 1 1 0 0 1 -1 3 -0 0 1 2 2 -0 -7 2 -0 1 0 1 0 -7 -1 1 -15 -0 -0 1 -1 -3 -4 1 -4
-2 1 3 -5 -0 0 1 -0 -0 1 -1 1 0 0 0 0 -1 3 -0 2 -2 0 1 1 -4 -1 -5 -4 -2 0 -0 -1 0 -0 -3 1 -13 0 0 -0 0 1 2 5 9
-1 2 1 -1 1 2 0 -1 0 -0 -2 -1 1 -1 1 1 0 -4 -1 0 -3 -1 -2 -1 0 -1 -4 -8 3 -0 -1 -1 2 2 -4 -9 -8 -10 -4 -0 -4 -3 -6 3 -1
2 0 -0 -0 1 0 0 1 -0 -0 0 -0 -1 1 1 1 -1 -1 -0 -2 2 1 -0 1 1 3 -3 -0 1 2 1 -2 2 -7 1 -24 1 -8 -3 -0 0 1 -3 -2 -2
-0 2 -0 -1 -2 2 -1 -2 0 -3 -1 -1 2 -1 1 1 1 -1 5 1 0 4 0 0 -4 1 -5 -2 2 1 -1 0 -0 -3 1 3 -11 -0 -8 2 -2 -1 2 -0 -3
-1 -0 0 0 0 2 0 -1 2 -1 -4 3 1 1 0 -1 2 1 1 -1 -1 5 -0 2 -0 2 -7 0 -2 -6 -4 -1 -1 -0 -2 -1 -17 -1 -2 -1 -1 -3 -1 -1 1
Height
1540 1540 1539 1539 1538 1537 1536 1534 1532 1529 1526 1523 1521 1518 1516 1513 1510 1509 1509 1508 1503 1500 1496 1495 1495 1493 1492 1491 1491 1490 1491 1486 1481 1475 1467 1459 1459 1461 1462 1460 1463 1466 1469 1472 1480
1540 1540 1539 1539 1538 1538 1537 1534 1532 1530 1527 1523 1521 1518 1515 1513 1511 1511 1510 1506 1502 1499 1496 1496 1494 1493 1491 1488 1488 1489 1487 1482 1475 1469 1467 1464 1466 1465 1470 1460 1467 1471 1472 1476 1483
1541 1540 1540 1539 1539 1538 1537 1535 1532 1530 1527 1524 1522 1519 1516 1513 1512 1511 1509 1505 1501 1499 1497 1496 1494 1492 1490 1486 1485 1484 1485 1480 1473 1472 1470 1467 1469 1471 1479 1471 1464 1469 1475 1479 1485
1542 1541 1541 1540 1539 1538 1537 1535 1532 1530 1528 1524 1522 1520 1516 1514 1516 1511 1508 1505 1502 1499 1498 1496 1493 1492 1490 1485 1480 1482 1479 1477 1474 1476 1475 1474 1468 1472 1469 1474 1468 1468 1475 1480 1487
1543 1542 1541 1540 1539 1538 1536 1535 1532 1530 1528 1525 1523 1520 1518 1516 1516 1512 1508 1505 1502 1501 1499 1497 1494 1492 1490 1486 1480 1478 1476 1474 1471 1474 1476 1473 1469 1469 1475 1471 1467 1469 1477 1481 1487
1543 1542 1541 1540 1538 1537 1536 1534 1532 1530 1528 1525 1523 1522 1519 1517 1515 1512 1508 1505 1503 1501 1499 1497 1495 1493 1489 1485 1481 1478 1475 1471 1470 1470 1471 1470 1467 1466 1474 1478 1466 1469 1478 1483 1486
1543 1542 1541 1539 1538 1537 1535 1533 1531 1529 1528 1526 1524 1521 1519 1520 1514 1511 1508 1505 1503 1500 1498 1496 1494 1494 1490 1484 1480 1478 1478 1470 1467 1468 1468 1468 1464 1466 1471 1472 1458 1469 1478 1483 1486
1544 1543 1541 1540 1538 1536 1534 1532 1530 1529 1527 1525 1523 1522 1519 1517 1513 1511 1507 1504 1503 1500 1497 1495 1494 1493 1491 1486 1481 1477 1475 1476 1459 1464 1464 1467 1468 1451 1458 1475 1468 1468 1477 1484 1486
1545 1543 1542 1540 1538 1535 1533 1531 1529 1528 1527 1525 1524 1522 1520 1517 1513 1510 1507 1504 1500 1498 1497 1494 1493 1490 1488 1490 1493 1474 1495 1473 1457 1458 1461 1464 1464 1459 1460 1467 1468 1466 1476 1483 1485
1545 1543 1541 1540 1537 1535 1532 1529 1527 1527 1527 1525 1523 1525 1520 1517 1512 1510 1507 1504 1500 1496 1494 1493 1492 1488 1486 1487 1495 1484 1476 1464 1461 1463 1461 1466 1463 1461 1468 1462 1463 1468 1475 1479 1482
1546 1544 1542 1540 1538 1535 1532 1529 1530 1529 1527 1527 1526 1524 1520 1517 1512 1509 1507 1503 1501 1496 1495 1491 1496 1499 1492 1487 1483 1478 1473 1473 1465 1464 1466 1467 1464 1459 1459 1463 1467 1470 1470 1478 1483
1545 1543 1542 1540 1538 1536 1534 1532 1533 1533 1528 1524 1524 1522 1520 1516 1513 1511 1507 1505 1501 1499 1495 1493 1499 1495 1490 1483 1481 1476 1476 1477 1467 1465 1465 1463 1462 1458 1456 1454 1457 1469 1472 1472 1477
1546 1544 1541 1539 1538 1537 1534 1534 1533 1532 1531 1524 1522 1520 1520 1518 1515 1511 1509 1505 1503 1500 1499 1499 1498 1493 1488 1485 1485 1482 1486 1484 1481 1468 1462 1464 1466 1459 1454 1455 1459 1464 1467 1472 1470
1547 1543 1542 1540 1540 1537 1535 1534 1533 1532 1531 1523 1521 1520 1519 1517 1515 1512 1510 1510 1503 1503 1500 1497 1496 1495 1490 1489 1491 1484 1483 1482 1478 1479 1480 1461 1484 1455 1453 1454 1457 1461 1465 1468 1472
1546 1544 1541 1539 1539 1538 1538 1534 1533 1533 1543 1521 1520 1519 1517 1519 1516 1512 1510 1509 1507 1506 1505 1501 1499 1499 1495 1493 1491 1489 1483 1482 1480 1482 1479 1465 1482 1460 1450 1452 1454 1454 1457 1462 1467
1545 1543 1541 1540 1538 1538 1536 1534 1534 1538 1544 1522 1519 1518 1517 1514 1513 1511 1509 1508 1507 1505 1500 1498 1498 1499 1497 1492 1489 1485 1481 1474 1475 1481 1498 1475 1484 1477 1462 1459 1455 1454 1453 1456 1462
1544 1542 1539 1538 1537 1536 1535 1535 1540 1540 1520 1521 1519 1517 1517 1514 1512 1511 1510 1508 1514 1520 1512 1499 1496 1496 1497 1494 1487 1489 1489 1500 1504 1501 1497 1480 1489 1476 1459 1458 1459 1458 1458 1460 1461
1542 1540 1538 1536 1535 1534 1535 1536 1541 1522 1518 1520 1519 1517 1517 1515 1511 1511 1509 1510 1509 1511 1515 1516 1519 1498 1498 1499 1501 1498 1495 1514 1508 1506 1499 1476 1484 1471 1458 1459 1460 1461 1462 1461 1463
1541 1539 1535 1534 1533 1533 1536 1540 1534 1522 1522 1521 1516 1517 1510 1514 1516 1511 1506 1508 1511 1513 1521 1517 1511 1499 1498 1498 1501 1497 1504 1496 1501 1491 1494 1480 1464 1458 1459 1461 1461 1462 1463 1463 1463
1540 1537 1533 1532 1532 1532 1536 1534 1525 1524 1523 1522 1522 1516 1517 1513 1515 1514 1506 1508 1511 1513 1513 1512 1521 1499 1497 1499 1499 1499 1499 1507 1505 1505 1501 1488 1478 1486 1466 1464 1463 1464 1464 1463 1462
1539 1537 1533 1531 1532 1533 1536 1529 1524 1525 1524 1523 1519 1518 1515 1515 1515 1514 1509 1510 1509 1512 1513 1511 1514 1507 1497 1499 1496 1501 1499 1499 1500 1500 1504 1503 1489 1459 1462 1460 1460 1461 1462 1461 1460
1538 1538 1534 1532 1533 1531 1530 1525 1527 1524 1526 1523 1522 1521 1519 1518 1518 1515 1510 1508 1511 1512 1512 1512 1513 1517 1501 1495 1494 1496 1496 1498 1508 1504 1501 1503 1483 1454 1457 1457 1458 1456 1456 1456 1456
1535 1535 1530 1533 1532 1529 1525 1526 1526 1524 1525 1524 1520 1518 1519 1520 1523 1513 1510 1512 1513 1513 1513 1512 1514 1521 1499 1500 1498 1498 1493 1494 1498 1503 1507 1507 1489 1455 1455 1456 1456 1457 1456 1454 1452
1535 1531 1529 1529 1530 1530 1526 1523 1524 1522 1524 1524 1522 1520 1518 1518 1516 1516 1513 1511 1512 1513 1513 1514 1512 1511 1518 1505 1499 1501 1495 1496 1498 1509 1494 1485 1470 1464 1459 1457 1454 1452 1451 1450 1449
1532 1528 1528 1528 1528 1528 1527 1523 1523 1522 1523 1522 1520 1520 1519 1519 1515 1512 1510 1509 1509 1509 1511 1513 1513 1510 1504 1502 1498 1494 1490 1487 1496 1487 1495 1468 1474 1461 1458 1456 1452 1450 1449 1446 1444
1530 1530 1527 1527 1528 1529 1525 1522 1522 1519 1520 1520 1522 1519 1518 1519 1518 1516 1512 1511 1510 1509 1509 1507 1511 1505 1509 1498 1494 1487 1478 1477 1476 1473 1474 1467 1461 1453 1450 1450 1450 1449 1447 1446 1444
1526 1528 1528 1526 1527 1529 1523 1521 1521 1522 1519 1519 1521 1521 1518 1516 1514 1513 1511 1508 1506 1506 1503 1503 1506 1504 1501 1494 1494 1489 1466 1464 1463 1461 1459 1466 1452 1449 1448 1448 1447 1446 1446 1446 1444